Погода в Жиганске

Россия / Республика Саха (Якутия)     66°46′03″N   123°22′27″E
темп.,
°C
ветер,
м/с
пор.,
м/с
влажн.,
%
обл.,
%
осадки,
мм/ч
давл.,
гПа
погр.,
м
3 марта, ср
ср300:00−36с2210046 0.0 102419
03:00−36с2310049 0.0 102419
06:00−36ссз349936 0.0 102419
09:00−36ссз569639 0.0 102374
12:00−33с689341 0.0 1022303
15:00−32с689066 0.0 1021374
18:00−33с4893100 0.0 1022147
21:00−33ссз51093100 0.0 1021328
4 марта, чт
чт400:00−35ссз61093100 0.0 1021177
03:00−37ссз6109296 0.0 1020139
06:00−38ссз589495 0.0 1020123
09:00−38сз599498 0.0 1020176
12:00−35ссз6991100 0.0 1020500
15:00−32с4690100 0.0 1022570
18:00−35сз2397100 0.0 102419
21:00−35сз4494100 0.0 102526
5 марта, пт
пт500:00−36сз3397100 0.0 102621
03:00−36сз3398100 0.0 102719
06:00−38ссз339992 0.0 102819
09:00−38с339752 0.0 102820
12:00−34с239021 0.0 1028212
15:00−33с228745 0.0 1028260
18:00−38с1110025 0.0 102919
21:00−39с1110012 0.0 103019
6 марта, сб
сб600:00−38ссз12970 0.0 102919
03:00−38с22960 0.0 102919
06:00−39с23970 0.0 102918
09:00−37ссз33940 0.0 102819
12:00−33с23900 0.0 1027198
15:00−31с22872 0.0 1026220
18:00−35с12970 0.0 102619
21:00−37ссз11960 0.0 102619
7 марта, вс
вс700:00−37ссз11930 0.0 102519
03:00−37с11920 0.0 102519
06:00−38св009211 0.0 102519
09:00−35ююз118437 0.0 102419
12:00−30ю227853 0.0 1023155
15:00−28ююв338260 0.0 1022236
18:00−32ююв339168 0.0 102119
21:00−33ю338850 0.0 102119